WA6MHA-11 Weather Reports


Display with metric or nautical units.
time (UTC)temp
F
wind
direction
speed
MPH
gust
MPH
rain 1hr
in
rain 24hr
in
rain mn
in
humidity
%
barometer
mb
20260903174456 85 195 3.0 7.0 0.00 0.00 0.00 31 1016.1
20260903174056 84 221 3.0 7.0 0.00 0.00 0.00 32 1016.1
20260903173656 83 135 3.0 8.0 0.00 0.00 0.00 32 1016.2
20260903173254 82 227 3.0 4.0 0.00 0.00 0.00 33 1016.2
20260903172450 82 108 2.0 7.0 0.00 0.00 0.00 33 1016.2
20260903172048 81 182 7.0 7.0 0.00 0.00 0.00 34 1016.2
20260903170844 78 139 6.0 9.0 0.00 0.00 0.00 35 1016.3
20260903170443 77 137 9.0 10.0 0.00 0.00 0.00 36 1016.3
20260903170042 77 130 5.0 11.0 0.00 0.00 0.00 36 1016.2
20260903165640 79 182 4.0 7.0 0.00 0.00 0.00 37 1016.2
20260903165243 78 140 5.0 6.0 0.00 0.00 0.00 37 1016.2
20260903164838 77 299 1.0 4.0 0.00 0.00 0.00 37 1016.1
20260903164035 76 225 3.0 7.0 0.00 0.00 0.00 38 1016.1
20260903163233 76 171 2.0 8.0 0.00 0.00 0.00 38 1016.1
20260903162832 76 90 7.0 7.0 0.00 0.00 0.00 39 1016.1
20260903162430 76 216 2.0 3.0 0.00 0.00 0.00 40 1016.2
20260903162033 75 146 5.0 8.0 0.00 0.00 0.00 39 1016.2
20260903161226 76 155 1.0 3.0 0.00 0.00 0.00 40 1016.2
20260903160825 75 255 1.0 5.0 0.00 0.00 0.00 40 1016.2
20260903160424 75 135 2.0 3.0 0.00 0.00 0.00 41 1016.1
20260903160023 75 150 2.0 6.0 0.00 0.00 0.00 41 1016.1
20260903155220 73 60 2.0 5.0 0.00 0.00 0.00 41 1016.1
20260903154818 73 141 5.0 9.0 0.00 0.00 0.00 41 1016.2
20260903154016 73 94 2.0 5.0 0.00 0.00 0.00 42 1016.2
20260903153615 74 99 4.0 6.0 0.00 0.00 0.00 42 1016.3
20260903153213 74 157 0.0 3.0 0.00 0.00 0.00 43 1016.2
20260903152812 73 35 0.0 1.0 0.00 0.00 0.00 43 1016.2
20260903152411 72 135 1.0 3.0 0.00 0.00 0.00 43 1016.1
20260903152011 71 135 4.0 5.0 0.00 0.00 0.00 43 1016.2
20260903151609 70 67 2.0 5.0 0.00 0.00 0.00 43 1016.2
20260903150808 69 132 4.0 5.0 0.00 0.00 0.00 44 1016.1
20260903150404 69 162 2.0 3.0 0.00 0.00 0.00 44 1016.2
20260903145202 67 220 1.0 5.0 0.00 0.00 0.00
20260903143956 66 139 1.0 4.0 0.00 0.00 0.00 48 1016.0
20260903142352 65 137 0.0 4.0 0.00 0.00 0.00 46 1015.9
20260903141950 65 83 3.0 4.0 0.00 0.00 0.00 45 1015.8
20260903141148 64 85 0.0 4.0 0.00 0.00 0.00 46 1015.8
20260903140746 64 135 4.0 4.0 0.00 0.00 0.00 46 1015.8
20260903135141 63 58 1.0 1.0 0.00 0.00 0.00 45 1015.7
20260903134342 62 85 0.0 1.0 0.00 0.00 0.00 45 1015.5
20260903133939 62 83 1.0 0.0 0.00 0.00 0.00 45 1015.5
20260903133135 62 299 0.0 0.0 0.00 0.00 0.00 45 1015.5
20260903132733 62 81 0.0 0.0 0.00 0.00 0.00 45 1015.5
20260903132332 62 83 0.0 0.0 0.00 0.00 0.00 46 1015.7
20260903131932 62 85 0.0 1.0 0.00 0.00 0.00 46 1015.4
20260903130727 61 36 0.0 1.0 0.00 0.00 0.00 46 1015.6
20260903130326 61 35 0.0 0.0 0.00 0.00 0.00 46 1015.6
20260903125926 61 274 0.0 0.0 0.00 0.00 0.00 46 1015.6
20260903125523 61 288 0.0 1.0 0.00 0.00 0.00 46 1015.6
20260903125123 61 265 0.0 1.0 0.00 0.00 0.00 47 1015.6
20260903124721 60 274 0.0 1.0 0.00 0.00 0.00 46 1015.7
20260903124319 60 328 0.0 0.0 0.00 0.00 0.00 46 1015.7
20260903123918 60 337 0.0 1.0 0.00 0.00 0.00 46 1015.6
20260903122715 58 42 0.0 1.0 0.00 0.00 0.00 46 1015.7
20260903121912 58 235 0.0 0.0 0.00 0.00 0.00 46 1015.6
20260903121510 58 288 0.0 0.0 0.00 0.00 0.00 46 1015.6
20260903121109 58 279 0.0 0.0 0.00 0.00 0.00 46 1015.6
20260903120307 58 292 0.0 0.0 0.00 0.00 0.00 46 1015.6
20260903115905 58 274 0.0 0.0 0.00 0.00 0.00 46 1015.7
20260903115103 58 274 0.0 0.0 0.00 0.00 0.00 46 1015.7
20260903114254 58 330 0.0 0.0 0.00 0.00 0.00 46 1015.7
20260903113452 58 292 0.0 0.0 0.00 0.00 0.00 46 1015.7
20260903113053 58 279 0.0 0.0 0.00 0.00 0.00 46 1015.7
20260903112649 58 310 0.0 0.0 0.00 0.00 0.00 46 1015.7
20260903112248 58 283 0.0 0.0 0.00 0.00 0.00 46 1015.7
20260903111847 58 297 0.0 0.0 0.00 0.00 0.00 46 1015.7
20260903111446 58 279 0.0 0.0 0.00 0.00 0.00 46 1015.7
20260903110238 58 231 0.0 1.0 0.00 0.00 0.00 46 1015.7
20260903105836 58 274 0.0 1.0 0.00 0.00 0.00 45 1015.7
20260903105834 58 274 0.0 1.0 0.00 0.00 0.00 45 1015.7
20260903105032 58 279 0.0 0.0 0.00 0.00 0.00 45 1015.8
20260903104631 58 290 0.0 0.0 0.00 0.00 0.00 45 1015.8
20260903104230 98 231 0.0 0.0 0.00 0.00 0.00 45 1015.9
20260903104128 58 202 0.0 0.0 0.00 0.00 0.00 45 1015.8
20260903103828 58 202 0.0 0.0 0.00 0.00 0.00 45 1015.8
20260903103426 58 189 0.0 0.0 0.00 0.00 0.00 45 1015.8
20260903103025 58 184 0.0 0.0 0.00 0.00 0.00 45 1015.9
20260903102624 58 230 0.0 0.0 0.00 0.00 0.00 45 1015.8
20260903102223 58 234 0.0 0.0 0.00 0.00 0.00 45 1015.8
20260903101821 58 230 0.0 1.0 0.00 0.00 0.00 45 1015.9
20260903101019 58 274 1.0 1.0 0.00 0.00 0.00 45 1015.8
20260903100620 58 283 0.0 0.0 0.00 0.00 0.00 45 1016.0
20260903100216 58 227 0.0 0.0 0.00 0.00 0.00 44 1015.9
20260903095815 58 288 0.0 0.0 0.00 0.00 0.00 44 1015.9
20260903095413 58 252 0.0 0.0 0.00 0.00 0.00 44 1015.9
20260903094613 58 283 0.0 0.0 0.00 0.00 0.00 44 1015.9
20260903093407 58 283 0.0 1.0 0.00 0.00 0.00 44 1016.0
20260903092605 59 242 0.0 1.0 0.00 0.00 0.00 44 1016.1
20260903092205 59 283 0.0 0.0 0.00 0.00 0.00 44 1016.1
20260903091803 59 288 0.0 0.0 0.00 0.00 0.00 44 1016.2
20260903091000 59 279 0.0 0.0 0.00 0.00 0.00 43 1016.1
20260903090558 59 279 0.0 0.0 0.00 0.00 0.00 43 1016.2
20260903090157 59 308 0.0 0.0 0.00 0.00 0.00 43 1016.2
20260903085756 59 279 0.0 0.0 0.00 0.00 0.00 43 1016.2
20260903085355 59 288 0.0 0.0 0.00 0.00 0.00 43 1016.3
20260903084552 59 279 0.0 0.0 0.00 0.00 0.00 43 1016.3
20260903084150 59 279 0.0 0.0 0.00 0.00 0.00 43 1016.4
20260903083749 59 274 0.0 0.0 0.00 0.00 0.00 43 1016.5
20260903083348 59 274 0.0 0.0 0.00 0.00 0.00 43 1016.4
20260903082949 60 299 0.0 0.0 0.00 0.00 0.00 43 101.6
20260903082546 60 310 0.0 0.0 0.00 0.00 0.00 43 1016.5
20260903082144 60 279 1.0 1.0 0.00 0.00 0.00 42 1016.5
20260903080940 60 228 0.0 0.0 0.00 0.00 0.00 42 1016.5
20260903080539 60 236 0.0 0.0 0.00 0.00 0.00 42 1016.5
20260903080138 60 274 0.0 0.0 0.00 0.00 0.00 42 1016.5
20260903075335 60 288 0.0 0.0 0.00 0.00 0.00 42 1016.7
20260903074125 60 299 0.0 0.0 0.00 0.00 0.00 42 1016.5
20260903073724 60 299 0.0 0.0 0.00 0.00 0.00 41 1016.4
20260903073326 61 274 0.0 0.0 0.00 0.00 0.00 41 1016.5
20260903072921 61 279 0.0 0.0 0.00 0.00 0.00 41 1016.4
20260903072119 61 279 0.0 0.0 0.00 0.00 0.00 41 1016.5
20260903071718 61 279 0.0 0.0 0.00 0.00 0.00 41 1016.4
20260903071317 61 283 0.0 0.0 0.00 0.00 0.00 41 1016.4
20260903070915 61 283 0.0 0.0 0.00 0.00 0.00 41 1016.4
20260903070515 61 279 0.0 0.0 0.00 0.00 0.00 41 1016.4
20260903070115 62 270 0.0 0.0 0.00 0.00 0.00 41 1016.6
20260903070113 62 270 0.0 0.0 0.00 0.00 0.00 41 1016.6
20260903065711 62 230 0.0 0.0 0.00 0.00 0.00 41 1016.6
20260903065310 62 274 0.0 0.0 0.00 0.00 0.00 41 1016.4
20260903064909 62 342 0.0 0.0 0.00 0.00 0.00 40 1016.4
20260903064106 62 283 0.0 0.0 0.00 0.00 0.00 40 1016.4
20260903063706 62 288 0.0 0.0 0.00 0.00 0.00
20260903063704 62 288 0.0 0.0 0.00 0.00 0.00 40 1016.4
20260903063303 62 279 0.0 0.0 0.00 0.00 0.00 40 1016.4
20260903062903 62 274 0.0 0.0 0.00 0.00 0.00 40 1016.3
20260903062501 63 182 0.0 0.0 0.00 0.00 0.00 40 1016.3
20260903062100 63 235 0.0 0.0 0.00 0.00 0.00 40 1016.3
20260903061658 63 279 0.0 0.0 0.00 0.00 0.00 39 1016.3
20260903061257 63 306 0.0 0.0 0.00 0.00 0.00 39 1016.2
20260903060856 63 310 0.0 0.0 0.00 0.00 0.00 39 1016.1
20260903060456 63 306 0.0 0.0 0.00 0.00 0.00 39 1016.1
20260903060053 63 213 0.0 0.0 0.00 0.00 0.00 39 1016.1
20260903055653 63 299 0.0 0.0 0.00 0.00 0.00 39 1016.2
20260903055250 64 301 0.0 0.0 0.00 0.00 0.00 39 1016.1
20260903054849 64 310 0.0 0.0 0.00 0.00 0.00 39 1016.1
20260903054448 64 312 0.0 0.0 0.00 0.00 0.00 39 1016.2
20260903054047 64 301 0.0 0.0 0.00 0.00 0.00 38 1016.2
20260903053646 64 297 0.0 0.0 0.00 0.00 0.00 38 1016.1
20260903053244 64 306 0.0 0.0 0.00 0.00 0.00 38 1016.1
20260903052843 64 306 0.0 0.0 0.00 0.00 0.00 38 1016.1
20260903052441 64 306 0.0 0.0 0.00 0.00 0.00 38 1016.1
20260903052040 64 303 0.0 2.0 0.00 0.00 0.00 38 1016.2
20260903051640 65 42 1.0 1.0 0.00 0.00 0.00 38 1016.3
20260903051238 66 283 0.0 1.0 0.00 0.00 0.00 37 1016.2
20260903050837 66 333 0.0 1.0 0.00 0.00 0.00 37 1016.2
20260903050435 66 135 0.0 1.0 0.00 0.00 0.00 37 1016.2
20260903044830 67 306 0.0 0.0 0.00 0.00 0.00 36 1016.2
20260903044429 67 315 0.0 0.0 0.00 0.00 0.00 36 1016.3
20260903043228 67 290 0.0 1.0 0.00 0.00 0.00 36 1016.2
20260903042824 67 306 0.0 1.0 0.00 0.00 0.00 35 1016.2
20260903042022 68 315 0.0 1.0 0.00 0.00 0.00 35 1016.2
20260903041619 68 297 0.0 1.0 0.00 0.00 0.00 35 1016.1
20260903040820 69 135 0.0 0.0 0.00 0.00 0.00 34 1016.2
20260903035614 70 283 0.0 0.0 0.00 0.00 0.00 34 1016.0
20260903034811 70 186 0.0 0.0 0.00 0.00 0.00 34 1016.0
20260903034409 71 279 0.0 1.0 0.00 0.00 0.00 33 1015.9
20260903034010 71 279 0.0 1.0 0.00 0.00 0.00 33 1015.9
20260903033608 71 274 1.0 1.0 0.00 0.00 0.00 33 1015.8
20260903033207 71 274 0.0 1.0 0.00 0.00 0.00 33 1015.8
20260903032804 72 270 1.0 2.0 0.00 0.00 0.00 32 1015.7
20260903032403 72 274 1.0 2.0 0.00 0.00 0.00 32 1015.7
20260903031601 72 306 2.0 3.0 0.00 0.00 0.00 32 1015.6
20260903031200 73 274 1.0 3.0 0.00 0.00 0.00 32 1015.5
20260903025554 74 279 1.0 4.0 0.00 0.00 0.00 31 1015.5
20260903024752 75 274 1.0 1.0 0.00 0.00 0.00 31 1015.5
20260903024351 75 306 0.0 0.0 0.00 0.00 0.00 31 1015.4
20260903023949 75 339 0.0 1.0 0.00 0.00 0.00 30 1015.4
20260903023547 75 315 0.0 2.0 0.00 0.00 0.00 30 1015.3
20260903023146 76 285 1.0 2.0 0.00 0.00 0.00 29 1015.4
20260903022745 76 19 0.0 1.0 0.00 0.00 0.00 29 1015.4
20260903022345 76 42 1.0 1.0 0.00 0.00 0.00 28 1015.3
20260903021943 76 38 1.0 1.0 0.00 0.00 0.00 28 1015.3
20260903021541 76 45 1.0 2.0 0.00 0.00 0.00 28 1015.2
20260903021141 77 38 2.0 2.0 0.00 0.00 0.00
20260903020338 77 83 2.0 4.0 0.00 0.00 0.00 26 1015.2
20260903015937 78 99 3.0 4.0 0.00 0.00 0.00 26 1015.1
20260903015133 79 76 3.0 4.0 0.00 0.00 0.00 25 1015.2
20260903014735 79 55 3.0 4.0 0.00 0.00 0.00 25 1015.1
20260903013930 80 29 1.0 4.0 0.00 0.00 0.00 24 1015.2
20260903013529 80 72 4.0 6.0 0.00 0.00 0.00 24 1015.1
20260903013127 81 65 3.0 5.0 0.00 0.00 0.00 24 1015.1
20260903012725 81 110 3.0 4.0 0.00 0.00 0.00 23 1015.1
20260903012326 81 117 3.0 5.0 0.00 0.00 0.00 23 1015.1
20260903011522 81 101 3.0 6.0 0.00 0.00 0.00 22 1015.1
20260903011121 82 85 5.0 7.0 0.00 0.00 0.00 22 1015.1
20260903010720 83 90 6.0 7.0 0.00 0.00 0.00 22 1015.2
20260903010358 83 139 5.0 5.0 0.00 0.00 0.00 22 1015.1
20260903010318 83 139 5.0 5.0 0.00 0.00 0.00 22 1015.1
20260903005918 84 141 4.0 6.0 0.00 0.00 0.00 22 1015.1
20260903005516 83 157 3.0 9.0 0.00 0.00 0.00 21 1015.1
20260903004312 85 135 4.0 7.0 0.00 0.00 0.00 21 1015.0
20260903003509 85 180 2.0 7.0 0.00 0.00 0.00 20 1015.1
20260903003108 85 177 2.0 8.0 0.00 0.00 0.00 20 1015.1
20260903002707 85 145 3.0 8.0 0.00 0.00 0.00 20 1015.0
20260903002306 86 162 5.0 8.0 0.00 0.00 0.00 20 1015.0
20260903001904 86 180 5.0 7.0 0.00 0.00 0.00 19 1015.1
20260902235459 86 135 8.0 0.0 0.00 0.00 0.00 19 10.1
20260902235456 86 135 8.0 10.0 0.00 0.00 0.00 19 1015.2
20260902235057 87 186 7.0 7.0 0.00 0.00 0.00 19 1015.1
20260902234654 85 123 7.0 11.0 0.00 0.00 0.00 18 1015.2
20260902233444 88 135 8.0 8.0 0.00 0.00 0.00 19 1015.3
20260902233043 88 162 3.0 10.0 0.00 0.00 0.00 19 1015.3
20260902232240 89 135 10.0 11.0 0.00 0.00 0.00 18 1015.3
20260902231839 91 112 4.0 10.0 0.00 0.00 0.00 18 1015.4
20260902231438 92 186 5.0 8.0 0.00 0.00 0.00 18 1015.4
20260902231036 91 180 6.0 10.0 0.00 0.00 0.00 18 1015.4
20260902230635 91 139 7.0 10.0 0.00 0.00 0.00 18 1015.5
20260902230233 92 173 7.0 9.0 0.00 0.00 0.00 18 1015.5
20260902225834 93 155 4.0 10.0 0.00 0.00 0.00 18 1015.5
20260902225832 93 155 4.0 10.0 0.00 0.00 0.00 18 1015.5
20260902225431 93 177 6.0 9.0 0.00 0.00 0.00 17 1015.5
20260902225030 93 307 6.0 8.0 0.00 0.00 0.00 18 1015.5
20260902224629 93 200 7.0 8.0 0.00 0.00 0.00 18 1015.6
20260902224228 93 180 7.0 9.0 0.00 0.00 0.00 17 1015.6
20260902223825 93 162 5.0 12.0 0.00 0.00 0.00 18 1015.6
20260902223424 94 200 4.0 10.0 0.00 0.00 0.00 18 1015.8
20260902223025 94 191 9.0 10.0 0.00 0.00 0.00 18 1015.8
20260902221820 93 189 5.0 10.0 0.00 0.00 0.00 19 1015.9
20260902221420 93 108 4.0 9.0 0.00 0.00 0.00 19 1016.0
20260902221017 93 150 5.0 10.0 0.00 0.00 0.00 19 1016.1
20260902220617 93 182 4.0 10.0 0.00 0.00 0.00 19 1016.1
20260902220214 93 155 7.0 12.0 0.00 0.00 0.00 19 1016.1
20260902215815 93 172 9.0 9.0 0.00 0.00 0.00 19 1016.1
20260902215412 94 193 8.0 12.0 0.00 0.00 0.00 19 1016.2
20260902215010 93 301 3.0 9.0 0.00 0.00 0.00 19 1016.3
20260902214609 94 220 4.0 10.0 0.00 0.00 0.00 19 1016.3
20260902214208 93 186 3.0 12.0 0.00 0.00 0.00 19 1016.3
20260902213807 94 185 4.0 10.0 0.00 0.00 0.00 19 1016.3
20260902212602 93 128 3.0 11.0 0.00 0.00 0.00 19 1016.4
20260902211359 95 227 3.0 8.0 0.00 0.00 0.00 20 1016.5
20260902210958 95 192 5.0 9.0 0.00 0.00 0.00 20 1016.5
20260902210155 94 73 1.0 9.0 0.00 0.00 0.00 20 1016.6
20260902205754 95 305 4.0 8.0 0.00 0.00 0.00 21 1016.6
20260902205352 95 279 2.0 7.0 0.00 0.00 0.00 21 1016.7
20260902204550 94 202 0.0 4.0 0.00 0.00 0.00 21 1016.8
20260902203347 93 205 3.0 4.0 0.00 0.00 0.00 22 1016.8
20260902202945 93 182 3.0 4.0 0.00 0.00 0.00 22 1016.9
20260902202622 92 340 1.0 5.0 0.00 0.00 0.00 22 1016.9
20260902202142 90 137 4.0 8.0 0.00 0.00 0.00 22 1016.9
20260902201741 92 110 3.0 5.0 0.00 0.00 0.00 22 1017.0
20260902201339 92 99 3.0 8.0 0.00 0.00 0.00 23 1017.0
20260902200938 91 103 1.0 4.0 0.00 0.00 0.00 23 1017.1
20260902200136 88 189 6.0 6.0 0.00 0.00 0.00 23 1017.0
20260902195735 86 76 4.0 7.0 0.00 0.00 0.00 23 1017.1
20260902195334 86 128 6.0 8.0 0.00 0.00 0.00 23 1017.1
20260902194931 86 81 5.0 10.0 0.00 0.00 0.00 23 1017.3
20260902194530 87 182 3.0 10.0 0.00 0.00 0.00 23 1017.3
20260902194500 86 47 1.0 7.0 0.00 0.00 0.00 23 1017.4
20260902194129 86 47 1.0 7.0 0.00 0.00 0.00 23 1017.4
20260902193728 86 182 2.0 9.0 0.00 0.00 0.00 24 1017.4
20260902193327 87 132 3.0 9.0 0.00 0.00 0.00 24 1017.4
20260902192926 87 19 0.0 6.0 0.00 0.00 0.00 24 1017.4
20260902192524 86 137 6.0 9.0 0.00 0.00 0.00 24 1017.5
20260902192123 87 135 4.0 10.0 0.00 0.00 0.00 24 1017.6
20260902191320 90 180 3.0 7.0 0.00 0.00 0.00 24 1017.6
20260902190518 89 186 5.0 8.0 0.00 0.00 0.00 24 1017.6
20260902190116 87 67 2.0 7.0 0.00 0.00 0.00 24 1017.6
20260902185715 87 330 1.0 5.0 0.00 0.00 0.00 24 1017.7
20260902184913 86 155 6.0 7.0 0.00 0.00 0.00 25 1017.8
20260902184512 88 160 3.0 3.0 0.00 0.00 0.00 25 1017.8
20260902184110 87 99 0.0 6.0 0.00 0.00 0.00 25 1017.9
20260902183830 86 130 4.0 8.0 0.00 0.00 0.00 25 1017.9
20260902183709 86 130 4.0 8.0 0.00 0.00 0.00 25 1017.9
20260902182906 87 177 3.0 5.0 0.00 0.00 0.00 25 1017.9
20260902182720 84 99 6.0 8.0 0.00 0.00 0.00 26 1017.8
20260902182104 84 99 6.0 8.0 0.00 0.00 0.00 26 1017.8
20260902181301 84 141 7.0 9.0 0.00 0.00 0.00 26 1018.0
20260902180057 83 85 2.0 7.0 0.00 0.00 0.00 28 1017.9
20260902175656 83 85 2.0 9.0 0.00 0.00 0.00 28 1017.8
20260902175255 84 195 4.0 7.0 0.00 0.00 0.00 28 1017.9
20260902174853 82 117 4.0 9.0 0.00 0.00 0.00 29 1017.8